STARLINK-32391, 61855

Orbit data source: Space-Track

STARLINK-32391, 61855 is a payload satellite owned by SpaceX/Seattle (US) in LEO that was launched on Thu, 07 Nov 2024 UTC via an FALCON 9 launch vehicle from the Air Force Eastern Test Range (AFETR). Payload-class satellites include a variety of spacecraft equipped with specific instruments for various scientific and technological missions. These include communications satellites like Starlink; space stations such as the ISS; scientific satellites like the Hubble; Earth observation satellites from companies like Planet Labs, Umbra, and HawkEye 360; GPS; miniature CubeSats for education and research; and military/defense satellites.

Loading next visibility...
Identifier
61855, 2024-202L
Orbit
LEO
Country
Flag of USUS
Related business
Manufacturer
SpaceX/Seattle
Mission
Operational Commercial Communications
Bus & Motor
STARLINK V2M, Unknown motor
Mass
730 kg wet, ~700 kg dry
Launch date (UTC)
2024-11-07 (2 years ago)
Launch vehicle
FALCON 9
Launch site
Air Force Eastern Test Range (AFETR)
Object type
Payload
Rocket body
Debris
Shape & HBR
Box + 2 Pan, 17.7 m
Radar Cross Section
33.884 m², Large (>1 m²)

Expand to show TLE details & history
Last TLE update: 23 hours ago

TLE from 23 hours ago
0 STARLINK-32391
1 61855U 24202L   26266.18286147  .00002119  00000-0  86521-4 0  9993
2 61855  43.0006 202.4735 0000536 321.2353  38.8460 15.27569851105538
Epoch: 2026-09-23T04:23Z
TLE epoch observation values (Epoch: 2026-09-23T04:23:19.231Z)
Latitude
-0.00001°
Longitude
134.60571°
Altitude
482.569 km
Speed
7.626 km/s
True Right ascension
13h 29m 53s
True Declination
0° 00' 00"
Sunlit
Object was in daylight at epoch
Visualization orbit readout
Latitude
Unknown
Longitude
Unknown
Altitude
Unknown
Speed
Unknown
Apparent Right ascension
Unknown
Apparent Declination
Unknown
Sunlit
N/A
Visualization observer readout
Local Sidereal Time
20:46:52
Azimuth
Unknown
Elevation
Unknown
Doppler factor
Unknown
Orbital elements
Apogee altitude
485.392 km
Perigee altitude
484.657 km
Semi-major axis
6,863.162 km
Eccentricity
0.00005
Inclination
43.0006°
RAAN
202.4735°
Arg. of periapsis
321.2353°
True anomaly
38.84985°
Mean anomaly
38.846°
Eccentric anomaly
38.84793°
Mean motion
3.8173 °/min
Orbital period
94.31 mins
BSTAR
0.000086521
Loading maneuver chart data...
Computing Atmospheric mass density...
Loading historical data...
Loading historical data...
Loading historical data...
Loading historical data...
Loading historical data...
Loading historical data...
Loading historical data...

Documentation

Showing up to 5 results
|